Seattle, WA
on Wednesday, January 2, 2013

Wednesday
Previous Day Next Day
Daily Summary
 ActualAverageRecord
Temperature
Mean Temperature °F 41°F  
Max Temperature 43°F 46°F 56°F (2003)
Min Temperature 30°F 36°F 6°F (1950)
Degree Days
Heating Degree Days 28 24  
Month to date heating degree days 59 48  
Since 1 July heating degree days 1810 1986  
Cooling Degree Days 0 0  
Month to date cooling degree days 0 0  
Year to date cooling degree days 0 0  
Moisture
Dew Point 22°F   
Average Humidity 66    
Maximum Humidity 92    
Minimum Humidity 39    
Precipitation
Precipitation 0.00 in 0.18 in 1.77 in (2007)
Month to date precipitation 0.00 0.36  
Year to date precipitation 0.00 0.36  
Snow
Snow 0.00 in in 2.60 in (1965)
Month to date snowfall 0.0  
Since 1 July snowfall 0.6  
Snow Depth 0.00 in   
Wind
Wind Speed 7 mph   
Max Wind Speed 17 mph   
Max Gust Speed 22 mph   
Visibility 10 miles   
Events     

Key: T is trace of precipitation, MM is missing value
Source: NWS Daily Summary
Time(PST)TemperatureDew PointHumidity Pressure Visibility Wind DirectionWind SpeedGust SpeedPrecipitationEvents Conditions
12:53 AM 32.0°F 26.1°F 79% 30.37 in 10.0 miles NE 4.6 mph - N/A   Partly Cloudy
1:53 AM 35.1°F 26.1°F 70% 30.34 in 10.0 miles East 9.2 mph - N/A   Clear
2:53 AM 32.0°F 24.1°F 73% 30.34 in 10.0 miles North 3.5 mph - N/A   Partly Cloudy
3:53 AM 30.9°F 24.1°F 76% 30.33 in 10.0 miles NNW 4.6 mph - N/A   Mostly Cloudy
4:53 AM 33.1°F 26.1°F 75% 30.32 in 10.0 miles ENE 5.8 mph - N/A   Mostly Cloudy
5:53 AM 35.1°F 21.9°F 59% 30.31 in 10.0 miles ENE 5.8 mph - N/A   Scattered Clouds
6:53 AM 33.8°F 21.2°F 60% 30.27 in 10.0 miles ESE 5.8 mph - N/A   Partly Cloudy
7:53 AM 35.1°F 19.9°F 54% 30.30 in 10.0 miles East 6.9 mph - N/A   Partly Cloudy
8:53 AM 32.0°F 21.9°F 66% 30.32 in 10.0 miles SSE 3.5 mph - N/A   Partly Cloudy
9:53 AM 37.9°F 24.1°F 57% 30.33 in 10.0 miles South 3.5 mph - N/A   Partly Cloudy
10:53 AM 41.0°F 19.9°F 43% 30.32 in 10.0 miles ESE 8.1 mph - N/A   Partly Cloudy
11:53 AM 43.0°F 19.9°F 40% 30.31 in 10.0 miles ESE 9.2 mph - N/A   Partly Cloudy
12:53 PM 39.9°F 32.0°F 73% 30.30 in 10.0 miles SSW 5.8 mph - N/A   Partly Cloudy
1:53 PM 41.0°F 30.0°F 65% 30.28 in 10.0 miles South 4.6 mph - N/A   Partly Cloudy
2:53 PM 42.1°F 30.0°F 62% 30.28 in 10.0 miles SSW 3.5 mph - N/A   Partly Cloudy
3:53 PM 39.9°F 28.9°F 65% 30.28 in 10.0 miles South 3.5 mph - N/A   Partly Cloudy
4:53 PM 39.9°F 19.0°F 43% 30.27 in 10.0 miles ESE 6.9 mph - N/A   Partly Cloudy
5:53 PM 39.0°F 17.1°F 41% 30.27 in 10.0 miles ESE 11.5 mph - N/A   Partly Cloudy
6:53 PM 37.0°F 17.1°F 44% 30.25 in 10.0 miles ESE 6.9 mph - N/A   Clear
7:53 PM 37.9°F 16.0°F 41% 30.24 in 10.0 miles ESE 12.7 mph 21.9 mph N/A   Clear
8:53 PM 37.9°F 16.0°F 41% 30.23 in 10.0 miles ESE 12.7 mph - N/A   Clear
9:53 PM 37.0°F 16.0°F 42% 30.23 in 10.0 miles ESE 9.2 mph - N/A   Clear
10:53 PM 37.0°F 15.1°F 41% 30.22 in 10.0 miles SE 11.5 mph - N/A   Clear
11:53 PM 37.0°F 15.1°F 41% 30.21 in 10.0 miles East 13.8 mph - N/A   Clear
Moon Phase
Jan. 02 Jan. 04 Jan. 11 Jan. 18 Jan. 26
Sunrise:07:56 AM (PST) Moon Rise:10:34 PM (PST)1/2
Sunset:04:30 PM (PST) Moon Set:10:17 AM (PST)1/2

Copyright © 2014 The Weather Underground, Inc.